EW8320 Weather Reports


Display with metric or nautical units.
time (UTC)temp
F
wind
direction
speed
MPH
gust
MPH
rain 1hr
in
rain 24hr
in
rain mn
in
humidity
%
barometer
mb
20260831094528 43 271 4.0 6.0 0.00 0.00 0.00 66 1020.7
20260831092527 44 271 4.0 8.0 0.00 0.00 0.00 64 1021.0
20260831091528 44 262 3.0 6.0 0.00 0.00 0.00 64 1021.0
20260831090527 44 280 3.0 7.0 0.00 0.00 0.00 65 1021.0
20260831085528 44 268 4.0 6.0 0.00 0.00 0.00 65 1021.1
20260831084626 43 271 3.0 6.0 0.00 0.00 0.00 63 1021.2
20260831083629 41 265 4.0 6.0 0.00 0.00 0.00 60 1021.2
20260831082726 39 269 3.0 8.0 0.00 0.00 0.00 59 1021.3
20260831081725 40 266 3.0 6.0 0.00 0.00 0.00 59 1021.3
20260831073827 47 267 2.0 5.0 0.00 0.00 0.00 59 1021.4
20260831072827 48 249 3.0 6.0 0.00 0.00 0.00 57 1021.3
20260831071827 48 263 4.0 7.0 0.00 0.00 0.00 56 1021.3
20260831065906 48 247 3.0 8.0 0.00 0.00 0.00 58 1021.4
20260831065004 48 266 4.0 7.0 0.00 0.00 0.00 56 1021.5
20260831064103 48 280 3.0 7.0 0.00 0.00 0.00 56 1021.5
20260831063107 49 251 3.0 6.0 0.00 0.00 0.00 56 1021.4
20260831062106 49 289 3.0 6.0 0.00 0.00 0.00 55 1021.5
20260831061106 50 274 3.0 7.0 0.00 0.00 0.00 53 1021.3
20260831055106 50 267 4.0 7.0 0.00 0.00 0.00 55 1021.6
20260831054108 48 261 2.0 7.0 0.00 0.00 0.00 57 1021.5
20260831052307 42 203 2.0 3.0 0.00 0.00 0.00 58 1021.5
20260831051307 46 202 0.0 0.0 0.00 0.00 0.00 59 1021.5
20260831050307 49 225 0.0 0.0 0.00 0.00 0.00 55 1021.7
20260831045306 51 232 1.0 2.0 0.00 0.00 0.00 52 1021.6
20260831044305 50 247 0.0 1.0 0.00 0.00 0.00 51 1021.6
20260831043306 50 247 0.0 1.0 0.00 0.00 0.00 52 1021.4
20260831042308 50 270 0.0 0.0 0.00 0.00 0.00 52 1021.5
20260831041305 51 315 0.0 0.0 0.00 0.00 0.00 51 1021.5
20260831040404 52 112 1.0 2.0 0.00 0.00 0.00 48 1021.6
20260831035404 53 247 0.0 0.0 0.00 0.00 0.00 47 1021.4
20260831034407 55 247 0.0 0.0 0.00 0.00 0.00 43 1021.6
20260831033504 54 287 2.0 3.0 0.00 0.00 0.00 43 1021.4
20260831032504 54 180 0.0 0.0 0.00 0.00 0.00 45 1021.1
20260831031506 55 180 0.0 0.0 0.00 0.00 0.00 43 1020.9
20260831030504 56 202 1.0 2.0 0.00 0.00 0.00 40 1020.8
20260831024505 57 321 1.0 3.0 0.00 0.00 0.00 39 1020.7
20260831023507 58 292 0.0 0.0 0.00 0.00 0.00 39 1020.6
20260831021505 63 300 0.0 0.0 0.00 0.00 0.00 33 1020.6
20260831015505 66 337 2.0 4.0 0.00 0.00 0.00 29 1020.5
20260831014604 66 337 0.0 1.0 0.00 0.00 0.00 28 1020.6
20260831013607 66 67 0.0 0.0 0.00 0.00 0.00 27 1020.6
20260831012606 67 77 2.0 4.0 0.00 0.00 0.00 27 1020.7
20260831011604 68 67 0.0 1.0 0.00 0.00 0.00 26 1020.5
20260831011504 68 67 0.0 1.0 0.00 0.00 0.00 27 1020.6
20260831010504 68 77 3.0 6.0 0.00 0.00 0.00 25 1020.7
20260831005604 69 71 5.0 7.0 0.00 0.00 0.00 26 1020.7
20260831004606 69 75 3.0 6.0 0.00 0.00 0.00 26 1020.8
20260831003606 70 81 5.0 7.0 0.00 0.00 0.00 24 1020.8
20260831002605 70 64 5.0 9.0 0.00 0.00 0.00 24 1020.7
20260831001704 71 88 6.0 8.0 0.00 0.00 0.00 23 1020.6
20260831000803 72 70 4.0 7.0 0.00 0.00 0.00 23 1020.7
20260830234804 71 60 2.0 4.0 0.00 0.00 0.00 24 1020.7
20260830233806 71 108 3.0 5.0 0.00 0.00 0.00 24 1020.8
20260830232808 71 79 2.0 4.0 0.00 0.00 0.00 23 1020.8
20260830231905 72 62 4.0 8.0 0.00 0.00 0.00 24 1020.8
20260830231005 71 32 2.0 4.0 0.00 0.00 0.00 24 1021.0
20260830225104 70 130 3.0 4.0 0.00 0.00 0.00 25 1021.3
20260830224105 70 29 1.0 2.0 0.00 0.00 0.00 25 1021.3
20260830223106 69 97 3.0 6.0 0.00 0.00 0.00 26 1021.3
20260830222105 69 112 4.0 10.0 0.00 0.00 0.00 27 1021.2
20260830215220 68 101 5.0 9.0 0.00 0.00 0.00 28 1021.7
20260830213305 67 97 4.0 6.0 0.00 0.00 0.00 31 1021.9
20260830212306 68 154 3.0 6.0 0.00 0.00 0.00 30 1022.0
20260830211306 68 59 5.0 8.0 0.00 0.00 0.00 32 1022.2
20260830210305 68 108 6.0 11.0 0.00 0.00 0.00 32 1022.2
20260830205305 67 72 7.0 10.0 0.00 0.00 0.00 32 1022.2
20260830204319 65 140 2.0 4.0 0.00 0.00 0.00 34 1022.2
20260830202404 65 2 1.0 2.0 0.00 0.00 0.00 34 1022.5
20260830201422 66 74 2.0 6.0 0.00 0.00 0.00 34 1022.4
20260830200506 65 61 4.0 6.0 0.00 0.00 0.00 35 1022.6
20260830194506 64 111 4.0 6.0 0.00 0.00 0.00 37 1022.8
20260830193603 64 91 7.0 10.0 0.00 0.00 0.00 36 1022.7
20260830192604 64 358 5.0 7.0 0.00 0.00 0.00 37 1022.9
20260830191605 63 58 6.0 9.0 0.00 0.00 0.00 38 1022.8
20260830190607 62 165 2.0 4.0 0.00 0.00 0.00 37 1023.0
20260830184606 62 82 5.0 8.0 0.00 0.00 0.00 39 1023.1
20260830183705 61 76 4.0 6.0 0.00 0.00 0.00 39 1023.0
20260830175705 58 157 1.0 2.0 0.00 0.00 0.00 43 1023.6
20260830174805 57 16 0.0 5.0 0.00 0.00 0.00 46 1023.6
20260830174704 57 72 2.0 5.0 0.00 0.00 0.00 45 1023.7
20260830173705 55 101 6.0 8.0 0.00 0.00 0.00 44 1023.7
20260830172705 49 78 4.0 6.0 0.00 0.00 0.00 47 1023.8
20260830171707 49 103 5.0 6.0 0.00 0.00 0.00 49 1023.8
20260830165806 57 150 1.0 3.0 0.00 0.00 0.00 49 1023.7
20260830164806 56 249 0.0 0.0 0.00 0.00 0.00 51 1023.7
20260830163905 55 235 1.0 2.0 0.00 0.00 0.00 52 1023.7
20260830162905 55 194 0.0 2.0 0.00 0.00 0.00 51 1024.0
20260830161906 54 67 0.0 2.0 0.00 0.00 0.00 54 1024.0
20260830161005 52 90 0.0 1.0 0.00 0.00 0.00 55 1024.0
20260830160005 51 212 0.0 2.0 0.00 0.00 0.00 58 1024.0
20260830155022 48 231 1.0 3.0 0.00 0.00 0.00 59 1024.0
20260830154105 48 207 2.0 4.0 0.00 0.00 0.00 61 1023.9
20260830153105 47 202 0.0 1.0 0.00 0.00 0.00 63 1023.9
20260830152104 46 221 2.0 5.0 0.00 0.00 0.00 66 1024.0
20260830151107 44 259 2.0 4.0 0.00 0.00 0.00 70 1024.0
20260830150104 42 250 0.0 2.0 0.00 0.00 0.00 72 1023.9
20260830143204 40 272 2.0 6.0 0.00 0.00 0.00 77 1023.7
20260830142205 39 261 1.0 3.0 0.00 0.00 0.00 78 1023.8
20260830140205 36 285 1.0 3.0 0.00 0.00 0.00 82 1023.4
20260830135206 35 255 2.0 5.0 0.00 0.00 0.00 82 1023.3
20260830133206 36 250 0.0 1.0 0.00 0.00 0.00 82 1023.2
20260830132206 36 258 3.0 6.0 0.00 0.00 0.00 81 1023.0
20260830131206 36 287 0.0 1.0 0.00 0.00 0.00 81 1023.0
20260830125204 36 269 3.0 5.0 0.00 0.00 0.00 80 1022.9
20260830124206 37 263 4.0 8.0 0.00 0.00 0.00 79 1022.7
20260830123206 37 277 0.0 1.0 0.00 0.00 0.00 79 1022.7
20260830122205 37 271 0.0 2.0 0.00 0.00 0.00 78 1022.6
20260830121205 37 267 2.0 5.0 0.00 0.00 0.00 79 1022.5
20260830120206 36 287 0.0 3.0 0.00 0.00 0.00 81 1022.4
20260830115205 36 250 0.0 2.0 0.00 0.00 0.00 80 1022.5
20260830114207 37 269 0.0 2.0 0.00 0.00 0.00 79 1022.4
20260830113205 38 266 2.0 3.0 0.00 0.00 0.00 78 1022.6
20260830112205 38 237 2.0 4.0 0.00 0.00 0.00 77 1022.5
20260830110306 38 263 4.0 6.0 0.00 0.00 0.00 77 1022.4
20260830105306 38 282 2.0 6.0 0.00 0.00 0.00 78 1022.4
20260830103304 38 229 0.0 2.0 0.00 0.00 0.00 77 1022.3
20260830103205 38 227 0.0 1.0 0.00 0.00 0.00 77 1022.3
20260830102204 39 243 0.0 1.0 0.00 0.00 0.00 77 1022.4
20260830101207 38 241 1.0 4.0 0.00 0.00 0.00 77 1022.2
20260830100304 38 244 0.0 0.0 0.00 0.00 0.00 77 1022.2